Tracking 18852 objects as of 24-Nov-2017
HD Live streaming from Space Station
objects crossing your sky now

ORBCOMM FM 33

Track ORBCOMM FM 33 now!
10-day predictions
ORBCOMM FM 33 is classified as:


NORAD ID: 25983
Int'l Code: 1999-065D
Perigee: 776.8 km
Apogee: 788.8 km
Inclination: 45.0 °
Period: 100.4 minutes
Semi major axis: 7153 km
RCS: 0.736 m2 (medium)
Launch date: December 4, 1999
Source: ORBCOMM (ORB)
Launch site: AIR FORCE EASTERN TEST RANGE (AFETR)
aabbcc
Your satellite tracking list
Your tracking list is empty




NASA's NSSDC Master Catalog

Two Line Element Set (TLE):
1 25983U 99065D   17327.83192483  .00000118  00000-0  90584-4 0  9994
2 25983  45.0306  87.0992 0008425 283.5609 213.7052 14.34814317939089
Source of the keplerian elements: AFSPC